COSMOS 886 DEB, 9649

Orbit data source: Space-Track

COSMOS 886 DEB, 9649 is space debris in LEO originally from a launch on Mon, 27 Dec 1976 UTC launched from the Tyuratam Missile And Space Complex (TTMTR). Debris objects in space refer to the collection of defunct objects orbiting the Earth. Examples of debris include non-operational satellites, rocket bodies, and fragments generated from explosions, collisions, or faulty payload assembly.

Loading next visibility...
Identifier
9649, 1976-126F
Orbit
LEO
Country
Flag of CISCIS
Related business
Manufacturer
Unknown
Mission
Spacecraft
Bus & Motor
Unknown
Mass
Unknown
Launch date (UTC)
1976-12-27 (49 years ago)
Launch vehicle
Unknown
Launch site
Tyuratam Missile And Space Complex (TTMTR)
Object type
Payload
Rocket body
Debris
Shape & HBR
Unknown shape, 0.1 m
Radar Cross Section
Medium (>0.1 m² and <1 m²)

Expand to show TLE details & history
Last TLE update: 16 hours ago

TLE from 16 hours ago
0 COSMOS 886 DEB
1 09649U 76126F   26174.93833609  .00000469  00000-0  44555-3 0  9996
2 09649  65.9310 269.3223 0920077 277.6833  72.0773 12.71724896263815
Epoch: 2026-06-23T22:31Z
TLE epoch observation values (Epoch: 2026-06-23T22:31:12.238Z)
Latitude
-0.00001°
Longitude
19.41858°
Altitude
1,219.01 km
Speed
7.319 km/s
True Right ascension
17h 57m 17s
True Declination
0° 00' 00"
Sunlit
Object was in full shadow at epoch
Visualization orbit readout
Latitude
Unknown
Longitude
Unknown
Altitude
Unknown
Speed
Unknown
Apparent Right ascension
Unknown
Apparent Declination
Unknown
Sunlit
N/A
Visualization observer readout
Local Sidereal Time
01:46:22
Azimuth
Unknown
Elevation
Unknown
Doppler factor
Unknown
Orbital elements
Apogee altitude
2,086.694 km
Perigee altitude
660.276 km
Semi-major axis
7,751.622 km
Eccentricity
0.09201
Inclination
65.931°
RAAN
269.3223°
Arg. of periapsis
277.6833°
True anomaly
82.41978°
Mean anomaly
72.0773°
Eccentric anomaly
77.21832°
Mean motion
3.1802 °/min
Orbital period
113.2 mins
BSTAR
0.00044555
Loading maneuver chart data...
Computing Atmospheric mass density...

Documentation

Showing up to 5 results
|